TimeEDT,TemperatureF,Dew PointF,Humidity,Sea Level PressureIn,VisibilityMPH,Wind Direction,Wind SpeedMPH,Gust SpeedMPH,PrecipitationIn,Events,Conditions,WindDirDegrees,DateUTC
12:53 AM,48.9,43.0,80,30.01,10.0,Calm,Calm,-,N/A,,Clear,0,2012-11-02 04:53:00
1:53 AM,48.0,42.1,80,30.01,10.0,Calm,Calm,-,N/A,,Clear,0,2012-11-02 05:53:00
2:53 AM,46.9,42.1,83,30.02,10.0,Calm,Calm,-,N/A,,Clear,0,2012-11-02 06:53:00
3:53 AM,46.0,41.0,83,30.02,10.0,Calm,Calm,-,N/A,,Clear,0,2012-11-02 07:53:00
4:53 AM,46.0,42.1,86,30.03,10.0,NW,3.5,-,N/A,,Clear,310,2012-11-02 08:53:00
5:53 AM,44.1,39.9,85,30.03,10.0,Calm,Calm,-,N/A,,Clear,0,2012-11-02 09:53:00
6:53 AM,44.1,39.9,85,30.05,10.0,Calm,Calm,-,N/A,,Clear,0,2012-11-02 10:53:00
7:53 AM,44.1,39.9,85,30.06,10.0,Calm,Calm,-,N/A,,Clear,0,2012-11-02 11:53:00
8:53 AM,52.0,44.1,74,30.07,10.0,Calm,Calm,-,N/A,,Clear,0,2012-11-02 12:53:00
9:53 AM,60.1,39.9,47,30.09,10.0,WNW,3.5,-,N/A,,Clear,300,2012-11-02 13:53:00
10:53 AM,66.0,33.1,29,30.09,10.0,WSW,3.5,-,N/A,,Clear,250,2012-11-02 14:53:00
11:53 AM,70.0,33.1,26,30.09,10.0,Variable,4.6,-,N/A,,Clear,0,2012-11-02 15:53:00
12:53 PM,72.0,35.1,26,30.06,10.0,West,3.5,-,N/A,,Clear,260,2012-11-02 16:53:00
1:53 PM,73.9,36.0,25,30.03,10.0,WSW,10.4,-,N/A,,Clear,250,2012-11-02 17:53:00
2:53 PM,75.9,37.9,25,30.00,10.0,West,5.8,16.1,N/A,,Clear,280,2012-11-02 18:53:00
3:53 PM,77.0,39.0,25,29.98,10.0,WSW,9.2,18.4,N/A,,Clear,240,2012-11-02 19:53:00
4:53 PM,77.0,39.0,25,29.97,10.0,West,11.5,-,N/A,,Clear,270,2012-11-02 20:53:00
5:53 PM,75.9,41.0,29,29.98,10.0,West,9.2,-,N/A,,Clear,260,2012-11-02 21:53:00
6:53 PM,72.0,43.0,35,29.99,10.0,WSW,4.6,-,N/A,,Clear,250,2012-11-02 22:53:00
7:53 PM,64.9,45.0,48,30.00,10.0,WSW,3.5,-,N/A,,Clear,240,2012-11-02 23:53:00
8:53 PM,62.1,46.0,56,30.01,10.0,SW,5.8,-,N/A,,Clear,220,2012-11-03 00:53:00
9:53 PM,66.9,46.0,47,30.02,10.0,West,6.9,-,N/A,,Clear,260,2012-11-03 01:53:00
10:53 PM,64.9,48.0,54,30.03,10.0,WSW,8.1,-,N/A,,Clear,240,2012-11-03 02:53:00
11:53 PM,64.0,50.0,60,30.04,10.0,WSW,8.1,-,N/A,,Clear,250,2012-11-03 03:53:00